DW6178 Weather Reports


Display with metric or nautical units.
time (UTC)temp
F
wind
direction
speed
MPH
gust
MPH
rain 1hr
in
rain 24hr
in
rain mn
in
humidity
%
barometer
mb
20260904114522 55 258 0.0 1.0 0.00 0.00 0.00 11 1009.7
20260904113024 54 245 0.0 1.0 0.00 0.00 0.00 13 1009.6
20260904111519 55 228 1.0 7.0 0.00 0.00 0.00 13 1009.5
20260904110017 54 190 0.0 3.0 0.00 0.00 0.00 13 1009.4
20260904104521 55 226 1.0 3.0 0.00 0.00 0.00 17 1009.1
20260904103012 54 226 0.0 1.0 0.00 0.00 0.00 23 1008.9
20260904101512 54 226 0.0 2.0 0.00 0.00 0.00 37 1008.9
20260904100007 54 231 0.0 4.0 0.00 0.00 0.00 46 1008.8
20260904094548 54 232 0.0 2.0 0.00 0.00 0.00 49 1008.8
20260904093057 55 231 1.0 4.0 0.00 0.00 0.00 50 1008.8
20260904091527 55 198 1.0 6.0 0.00 0.00 0.00 49 1008.9
20260904090025 55 205 2.0 5.0 0.00 0.00 0.00 49 1008.9
20260904084506 55 203 1.0 4.0 0.00 0.00 0.00 48 1009.0
20260904083003 55 191 2.0 5.0 0.00 0.00 0.00 48 1009.2
20260904081542 56 198 2.0 6.0 0.00 0.00 0.00 47 1009.3
20260904080037 56 200 2.0 5.0 0.00 0.00 0.00 47 1009.3
20260904074517 56 185 2.0 6.0 0.00 0.00 0.00 48 1009.5
20260904073033 56 198 2.0 4.0 0.00 0.00 0.00 48 1009.5
20260904071554 56 210 2.0 5.0 0.00 0.00 0.00 47 1009.6
20260904070046 56 197 2.0 4.0 0.00 0.00 0.00 47 1009.5
20260904064525 56 208 2.0 3.0 0.00 0.00 0.00 48 1009.6
20260904063020 57 205 1.0 5.0 0.00 0.00 0.00 47 1009.6
20260904061616 57 197 1.0 3.0 0.00 0.00 0.00 46 1009.6
20260904060055 57 214 1.0 3.0 0.00 0.00 0.00 45 1009.5
20260904054552 57 186 1.0 3.0 0.00 0.00 0.00 45 1009.6
20260904053032 57 199 1.0 3.0 0.00 0.00 0.00 44 1009.6
20260904051527 57 207 1.0 2.0 0.00 0.00 0.00 39 1009.7
20260904050002 56 208 1.0 2.0 0.00 0.00 0.00 35 1009.7
20260904044558 55 283 0.0 0.0 0.00 0.00 0.00 44 1009.6
20260904043042 55 282 0.0 0.0 0.00 0.00 0.00 45 1009.6
20260904041543 56 283 0.0 0.0 0.00 0.00 0.00 40 1009.6
20260904040034 57 283 0.0 0.0 0.00 0.00 0.00 40 1009.4
20260904034529 57 283 0.0 0.0 0.00 0.00 0.00 48 1009.1
20260904033034 58 283 0.0 0.0 0.00 0.00 0.00 57 1009.0
20260904031519 58 282 0.0 1.0 0.00 0.00 0.00 59 1008.9
20260904030016 59 282 0.0 1.0 0.00 0.00 0.00 59 1008.8
20260904024511 59 283 0.0 0.0 0.00 0.00 0.00 58 1008.7
20260904023050 59 283 0.0 0.0 0.00 0.00 0.00 60 1008.6
20260904021545 60 281 0.0 1.0 0.00 0.00 0.00 60 1008.6
20260904020024 60 228 0.0 0.0 0.00 0.00 0.00 56 1008.7
20260904014519 60 203 0.0 0.0 0.00 0.00 0.00 51 1008.7
20260904013109 61 203 0.0 0.0 0.00 0.00 0.00 68 1008.6
20260904011605 61 203 0.0 2.0 0.00 0.00 0.00 72 1008.6
20260904010031 60 207 0.0 1.0 0.00 0.00 0.00 73 1008.6
20260904004527 61 226 1.0 4.0 0.00 0.00 0.00 71 1008.6
20260904003009 61 194 1.0 4.0 0.00 0.00 0.00 70 1008.6
20260904001501 61 250 1.0 7.0 0.00 0.00 0.00 70 1008.7
20260904000044 62 222 2.0 6.0 0.00 0.00 0.00 69 1008.7
20260903234539 63 192 2.0 5.0 0.00 0.00 0.00 66 1008.8
20260903233037 63 177 1.0 9.0 0.00 0.00 0.00 67 1008.9
20260903231531 63 170 3.0 8.0 0.00 0.00 0.00 64 1009.2
20260903230043 64 212 2.0 10.0 0.00 0.00 0.00 61 1009.3
20260903224526 64 158 3.0 8.0 0.00 0.00 0.00 63 1009.5
20260903223016 65 200 3.0 7.0 0.00 0.00 0.00 61 1009.7
20260903221515 65 236 3.0 11.0 0.00 0.00 0.00 61 1009.9
20260903220059 66 205 3.0 8.0 0.00 0.00 0.00 60 1010.0
20260903214547 67 295 1.0 7.0 0.00 0.00 0.00 54 1010.1
20260903213025 68 222 3.0 9.0 0.00 0.00 0.00 50 1010.5
20260903211520 69 203 2.0 9.0 0.00 0.00 0.00 44 1010.5
20260903204556 70 179 3.0 7.0 0.00 0.00 0.00 37 1010.7
20260903203033 69 196 2.0 6.0 0.00 0.00 0.00 38 1010.8
20260903201534 69 198 2.0 6.0 0.00 0.00 0.00 35 1011.0
20260903200007 68 148 4.0 7.0 0.00 0.00 0.00 35 1011.1
20260903194502 68 195 3.0 10.0 0.00 0.00 0.00 35 1011.1
20260903193041 68 188 3.0 9.0 0.00 0.00 0.00 35 1011.3
20260903191536 67 224 3.0 9.0 0.00 0.00 0.00 35 1011.4
20260903190024 67 211 2.0 6.0 0.00 0.00 0.00 33 1011.7
20260903184516 67 179 1.0 11.0 0.00 0.00 0.00 32 1011.9
20260903183012 66 229 0.0 6.0 0.00 0.00 0.00 32 1012.1
20260903181507 65 165 2.0 5.0 0.00 0.00 0.00 31 1012.3
20260903180011 66 150 2.0 6.0 0.00 0.00 0.00 27 1012.2
20260903174559 65 184 1.0 6.0 0.00 0.00 0.00 25 1012.3
20260903173102 66 274 1.0 5.0 0.00 0.00 0.00 19 1012.1
20260903171550 65 198 2.0 5.0 0.00 0.00 0.00 18 1012.1
20260903170041 65 258 1.0 3.0 0.00 0.00 0.00 19 1011.9
20260903164530 65 246 0.0 2.0 0.00 0.00 0.00 16 1011.9
20260903163008 64 274 2.0 8.0 0.00 0.00 0.00 13 1011.7
20260903161611 62 303 0.0 2.0 0.00 0.00 0.00 21 1011.7
20260903160042 61 217 0.0 2.0 0.00 0.00 0.00 31 1011.6
20260903154531 60 221 0.0 2.0 0.00 0.00 0.00 32 1011.6
20260903153009 59 346 0.0 1.0 0.00 0.00 0.00 32 1011.6
20260903151505 58 303 0.0 1.0 0.00 0.00 0.00 33 1011.6
20260903150045 58 298 0.0 3.0 0.00 0.00 0.00 33 1011.5
20260903144539 57 307 0.0 2.0 0.00 0.00 0.00 34 1011.4
20260903143017 57 300 0.0 2.0 0.00 0.00 0.00 32 1011.2
20260903141518 57 302 0.0 2.0 0.00 0.00 0.00 26 1011.1
20260903140101 56 298 1.0 3.0 0.00 0.00 0.00 29 1010.8
20260903134554 56 294 0.0 2.0 0.00 0.00 0.00 33 1010.7
20260903133049 56 294 0.0 1.0 0.00 0.00 0.00 34 1010.6
20260903131543 56 288 0.0 2.0 0.00 0.00 0.00 30 1010.4
20260903130039 57 290 0.0 3.0 0.00 0.00 0.00 29 1010.3
20260903124534 57 295 1.0 2.0 0.00 0.00 0.00 27 1010.3
20260903123036 58 280 1.0 3.0 0.00 0.00 0.00 24 1010.4
20260903121528 59 240 2.0 5.0 0.00 0.00 0.00 24 1010.4
20260903120022 58 253 2.0 4.0 0.00 0.00 0.00 25 1010.4